Date String (YYYY-MM-DD hh:mm:ss) UTC,Instrument flags,Ambient pressure (hPa),Sample flow (lpm),Bypass flow (lpm),Sample temperature (°C),Ambient temperature (°C),ASC tube jacket temperature (°C),LED temperature (°C),Box temperature (°C),Sample RH (%),Span deviation,Mass concentration (μg/m³),Mass concentration (μg/m³),Mass concentration (μg/m³)
DateTimeUTC,F1_M11,P_M11,Q1_M11,Q2_M11,T1_M11,T2_M11,T3_M11,T4_M11,T5_M11,U1_M11,ZSPAN_M11,X0_M11,X2_M11,X1_M11
2022-09-05 00:00:00,,0827.3,5.00,0.00,29.5,27.5,00.0,38.1,31.2,15.9,0000.0,0013.00,0006.72,0005.93
2022-09-05 00:01:00,,0827.2,5.01,0.00,29.5,27.8,00.0,38.1,31.3,15.8,0000.0,0013.05,0006.70,0005.90
2022-09-05 00:02:00,,0827.2,5.02,0.00,29.5,28.1,00.0,38.1,31.4,15.6,0000.0,0013.22,0006.74,0005.87
2022-09-05 00:03:00,,0827.3,4.98,0.00,29.6,28.3,00.0,38.1,31.5,15.6,0000.0,0013.51,0006.71,0005.88
2022-09-05 00:04:00,,0827.4,5.00,0.00,29.6,27.6,00.0,38.2,31.4,15.7,0000.0,0014.80,0006.69,0005.88
2022-09-05 00:05:00,,0827.4,5.01,0.00,29.5,26.6,00.0,38.1,31.3,15.9,0000.0,0015.00,0006.69,0005.89
2022-09-05 00:06:00,,0827.3,5.01,0.00,29.5,26.7,00.0,38.1,31.3,16.1,0000.0,0015.87,0006.72,0005.90
2022-09-05 00:07:00,,0827.3,4.99,0.00,29.5,27.0,00.0,38.1,31.2,16.0,0000.0,0014.88,0006.73,0005.91
2022-09-05 00:08:00,,0827.2,5.01,0.00,29.5,27.3,00.0,38.1,31.2,16.6,0000.0,0014.82,0006.73,0005.90
2022-09-05 00:09:00,,0827.3,5.00,0.00,29.5,27.6,00.0,38.1,31.2,16.9,0000.0,0014.91,0006.74,0005.90
2022-09-05 00:10:00,,0827.5,5.00,0.00,29.5,27.9,00.0,38.1,31.3,17.0,0000.0,0015.14,0006.75,0005.90
2022-09-05 00:11:00,,0827.3,4.99,0.00,29.5,28.2,00.0,38.1,31.4,16.7,0000.0,0015.27,0006.77,0005.90
2022-09-05 00:12:00,,0827.3,4.99,0.00,29.6,28.1,00.0,38.1,31.5,16.3,0000.0,0015.75,0006.79,0005.90
2022-09-05 00:13:00,,0827.3,5.01,0.00,29.6,27.0,00.0,38.2,31.3,16.4,0000.0,0016.52,0006.78,0005.89
2022-09-05 00:14:00,,0827.2,5.00,0.00,29.5,26.5,00.0,38.1,31.3,16.4,0000.0,0015.94,0006.79,0005.90
2022-09-05 00:15:00,,0827.2,5.00,0.00,29.5,26.8,00.0,38.1,31.3,16.6,0000.0,0014.46,0006.77,0005.91
2022-09-05 00:16:00,,0827.2,5.00,0.00,29.4,27.1,00.0,38.1,31.2,17.3,0000.0,0014.13,0006.78,0005.90
2022-09-05 00:17:00,,0827.2,5.00,0.00,29.4,27.5,00.0,38.1,31.2,17.5,0000.0,0013.20,0006.76,0005.90
2022-09-05 00:18:00,,0827.2,5.00,0.00,29.5,27.8,00.0,38.1,31.3,17.6,0000.0,0013.30,0006.73,0005.89
2022-09-05 00:19:00,,0827.2,5.01,0.00,29.5,28.0,00.0,38.1,31.4,17.8,0000.0,0013.04,0006.71,0005.90
2022-09-05 00:20:00,,0827.2,4.98,0.00,29.6,28.3,00.0,38.1,31.5,17.8,0000.0,0012.76,0006.69,0005.90
2022-09-05 00:21:00,,0827.2,5.00,0.00,29.6,27.6,00.0,38.1,31.4,17.6,0000.0,0013.42,0006.69,0005.91
2022-09-05 00:22:00,,0827.2,5.01,0.00,29.5,26.5,00.0,38.1,31.3,17.9,0000.0,0014.35,0006.74,0005.92
2022-09-05 00:23:00,,0827.2,5.02,0.00,29.5,26.6,00.0,38.1,31.3,17.9,0000.0,0014.38,0006.77,0005.95
2022-09-05 00:24:00,,0827.2,4.99,0.00,29.5,26.9,00.0,38.1,31.2,17.7,0000.0,0013.58,0006.82,0005.99
2022-09-05 00:25:00,,0827.2,5.00,0.00,29.4,27.2,00.0,38.1,31.2,17.5,0000.0,0013.58,0006.86,0006.02
2022-09-05 00:26:00,,0827.2,5.00,0.00,29.5,27.6,00.0,38.1,31.2,17.4,0000.0,0013.67,0006.88,0006.04
2022-09-05 00:27:00,,0827.2,5.01,0.00,29.5,27.9,00.0,38.1,31.3,17.0,0000.0,0013.57,0006.90,0006.07
2022-09-05 00:28:00,,0827.1,5.01,0.00,29.5,28.1,00.0,38.1,31.4,17.2,0000.0,0013.50,0006.91,0006.11
2022-09-05 00:29:00,,0827.2,4.99,0.00,29.6,28.3,00.0,38.1,31.5,17.5,0000.0,0013.41,0006.94,0006.15
2022-09-05 00:30:00,,0827.2,4.99,0.00,29.6,27.7,00.0,38.1,31.5,17.5,0000.0,0014.64,0007.01,0006.18
2022-09-05 00:31:00,,0827.1,5.00,0.00,29.6,26.7,00.0,38.1,31.3,17.3,0000.0,0014.99,0007.10,0006.21
2022-09-05 00:32:00,,0827.1,5.00,0.00,29.5,26.6,00.0,38.1,31.3,17.4,0000.0,0014.37,0007.15,0006.25
2022-09-05 00:33:00,,0827.1,5.00,0.00,29.5,26.9,00.0,38.1,31.2,17.6,0000.0,0014.04,0007.15,0006.29
2022-09-05 00:34:00,,0827.0,5.01,0.00,29.5,27.2,00.0,38.1,31.2,17.8,0000.0,0013.72,0007.16,0006.30
2022-09-05 00:35:00,,0827.1,4.99,0.00,29.5,27.5,00.0,38.1,31.2,18.1,0000.0,0014.14,0007.12,0006.30
2022-09-05 00:36:00,,0827.3,5.00,0.00,29.5,27.8,00.0,38.1,31.3,18.0,0000.0,0014.36,0007.07,0006.29
2022-09-05 00:37:00,,0827.4,5.00,0.00,29.5,28.1,00.0,38.1,31.4,17.8,0000.0,0014.63,0007.09,0006.30
2022-09-05 00:38:00,,0827.0,5.01,0.00,29.6,28.3,00.0,38.1,31.5,17.9,0000.0,0014.56,0007.09,0006.31
2022-09-05 00:39:00,,0827.0,5.00,0.00,29.6,27.8,00.0,38.2,31.5,17.2,0000.0,0014.46,0007.08,0006.31
2022-09-05 00:40:00,,0827.2,5.00,0.00,29.6,26.8,00.0,38.2,31.3,16.6,0000.0,0014.78,0007.07,0006.31
2022-09-05 00:41:00,,0827.0,5.00,0.00,29.5,26.7,00.0,38.1,31.3,16.6,0000.0,0015.36,0007.06,0006.30
2022-09-05 00:42:00,,0827.2,5.00,0.00,29.5,26.9,00.0,38.1,31.3,16.5,0000.0,0014.63,0006.99,0006.31
2022-09-05 00:43:00,,0827.3,4.99,0.00,29.5,27.2,00.0,38.1,31.2,16.5,0000.0,0014.51,0006.97,0006.31
2022-09-05 00:44:00,,0827.4,5.01,0.00,29.5,27.6,00.0,38.1,31.3,16.7,0000.0,0014.06,0006.96,0006.29
2022-09-05 00:45:00,,0827.2,5.00,0.00,29.5,27.9,00.0,38.1,31.3,16.6,0000.0,0013.88,0006.93,0006.27
2022-09-05 00:46:00,,0827.3,4.98,0.00,29.5,28.1,00.0,38.1,31.4,16.7,0000.0,0013.19,0006.91,0006.27
2022-09-05 00:47:00,,0827.2,5.01,0.00,29.6,28.4,00.0,38.1,31.5,16.6,0000.0,0012.97,0006.92,0006.26
2022-09-05 00:48:00,,0827.0,5.00,0.00,29.6,27.9,00.0,38.2,31.6,16.5,0000.0,0013.09,0006.91,0006.27
2022-09-05 00:49:00,,0827.3,5.01,0.00,29.6,26.8,00.0,38.2,31.3,16.6,0000.0,0013.25,0006.89,0006.26
2022-09-05 00:50:00,,0827.4,4.99,0.00,29.5,26.6,00.0,38.2,31.3,16.7,0000.0,0013.30,0006.93,0006.25
2022-09-05 00:51:00,,0827.3,5.00,0.00,29.5,26.9,00.0,38.1,31.2,16.7,0000.0,0013.30,0006.94,0006.25
2022-09-05 00:52:00,,0827.1,5.00,0.00,29.5,27.2,00.0,38.1,31.1,16.8,0000.0,0012.42,0006.94,0006.25
2022-09-05 00:53:00,,0827.3,5.01,0.00,29.5,27.5,00.0,38.1,31.2,16.9,0000.0,0012.65,0006.98,0006.24
2022-09-05 00:54:00,,0827.5,5.00,0.00,29.5,27.8,00.0,38.1,31.3,16.8,0000.0,0013.34,0006.98,0006.23
2022-09-05 00:55:00,,0827.1,5.01,0.00,29.5,28.1,00.0,38.1,31.4,16.8,0000.0,0013.32,0006.99,0006.22
2022-09-05 00:56:00,,0827.4,5.01,0.00,29.6,28.3,00.0,38.1,31.5,16.9,0000.0,0013.41,0007.01,0006.23
2022-09-05 00:57:00,,0827.3,5.00,0.00,29.6,28.0,00.0,38.2,31.5,17.1,0000.0,0013.49,0007.05,0006.24
2022-09-05 00:58:00,,0827.2,5.00,0.00,29.6,26.8,00.0,38.2,31.3,17.2,0000.0,0013.60,0007.09,0006.25
2022-09-05 00:59:00,,0827.0,5.00,0.00,29.5,26.5,00.0,38.1,31.3,17.3,0000.0,0013.31,0007.10,0006.25
